Regional Weather Roundup
Issued by NWS Wakefield, VA

Home | Current Version | Previous Version | Graphics & Text | Print | Product List | Glossary On
Versions: 1 2 3 4 5 6 7 8 9 10 11 12 13 14 15 16 17 18 19 20 21 22 23 24 25 26 27 28 29 30 31 32 33 34 35 36 37 38 39 40 41 42 43 44 45 46 47 48 49 50
573
ASUS41 KAKQ 292015
RWRAKQ

REGIONAL WEATHER ROUNDUP
NATIONAL WEATHER SERVICE WAKEFIELD VA
400 PM EDT FRI JUL 29 2016

Note: "fair" indicates few or no clouds below 12,000 feet with no
significant weather and/or obstructions to visibility. * = Denotes
station may not report precipitation (e.g., rain,snow,etc.),
thunder or fog.

VAZ042-051-052>054-056-292100-
NORTHERN VIRGINIA

CITY           SKY/WX    TMP DP  RH WIND       PRES   REMARKS
WASH NATIONAL  FAIR      89  67  47 E3        29.87F
DULLES         FAIR      88  67  49 VRB6      29.89S
FORT BELVOIR   FAIR      88  67  49 CALM      29.87F
QUANTICO       NOT AVBL
FREDERICKSBRG*   N/A     86  68  55 CALM      29.88S
STAFFORD*      FAIR      87  67  51 W5        29.93S
WARRENTON      FAIR      89  62  39 CALM      29.90R
CULPEPER*      FAIR      88  71  56 W5        29.91S
MANASSAS*      PTSUNNY   88  66  48 N3        29.89S
LEESBURG*      FAIR      88  70  55 CALM      29.90S
WINCHESTER     PTSUNNY   86  68  54 W6        29.92R
FRONT ROYAL*   MOCLDY    82  70  65 CALM      29.91S
LURAY*         NOT AVBL
$$

VAZ048-049-060>072-079>083-292100-
CENTRAL AND SOUTH CENTRAL VIRGINIA

CITY           SKY/WX    TMP DP  RH WIND       PRES   REMARKS
RICHMOND       FAIR      86  71  60 NW9       29.89F
CHESTERFIELD*  MOCLDY    88  64  45 N9        29.91S
PETERSBURG*    PTSUNNY   88  69  52 W5        29.90F
HANOVER        PTSUNNY   87  69  54 NW7       29.91F
TAPPAHANNOCK*  FAIR      86  70  58 N5        29.89S
QUINTON*       CLOUDY    83  74  74 CALM      29.88S
CHARLOTTSVILLE CLOUDY    88  65  46 N5        29.91F
GORDONSVILLE*  CLOUDY    87  71  58 CALM      29.90S
ORANGE*          N/A     86  68  54 CALM      29.92F
LOUISA*        FAIR      90  73  58 CALM      29.90S HX  98
BUMPASS*       MOCLDY    86  72  64 CALM      29.90S
FARMVILLE*     NOT AVBL
CREWE*         NOT AVBL
FORT PICKETT*  FAIR      85  73  66 CALM      29.92S
CHASE CITY*    FAIR      87  72  60 N5        29.92S
CLARKSVILLE*   FAIR      86  70  58 CALM      29.91F
SOUTH HILL*    PTSUNNY   86  73  64 N6        29.97S
LAWRENCEVILLE* MOCLDY    86  73  65 N3        29.91F
EMPORIA*       FAIR      88  70  55 W8        29.91S
$$

VAZ088>098-292100-
SOUTHEAST VIRGINIA

CITY           SKY/WX    TMP DP  RH WIND       PRES   REMARKS
NORFOLK        CLOUDY    85  75  72 NE8       29.87S
VIRGINIA BEACH PTSUNNY   90  73  57 N12       29.86S HX  98
NORFOLK NAVAL  PTSUNNY   86  74  67 NE7       29.89S
WEST POINT*    CLOUDY    84  71  63 CALM      29.89S
SALUDA*        CLOUDY    84  74  70 NW3       29.88S
NEWPORT NEWS   PTSUNNY   85  73  67 N9        29.88S
LANGLEY AFB    PTSUNNY   86  74  67 VRB6      29.87S
FORT EUSTIS    PTSUNNY   88  74  63 NW5       29.86S HX  97
WILLIAMSBURG*  FAIR      88  73  62 N5        29.89S HX  96
HR EXEC AP*    MOCLDY    84  73  70 NW7       29.90R
FRANKLIN*      CLOUDY    86  73  64 NW6       29.89S
US460-WAKEFLD  PTSUNNY   89  72  56 VRB3      29.88F HX  96
$$

VAZ020-022-025-037-045-292100-
WEST CENTRAL AND SOUTHWEST VIRGINIA

CITY           SKY/WX    TMP DP  RH WIND       PRES   REMARKS
STAUNTON*      CLOUDY    81  67  62 N5        29.97S
WAYNESBORO*    CLOUDY    81  67  61 NW5       29.98R
HOT SPRINGS VA NOT AVBL
LYNCHBURG      PTSUNNY   84  67  56 N6        29.95F
DANVILLE       PTSUNNY   89  69  51 N8        29.93F
SOUTH BOSTON*  MOCLDY   N/A N/A N/A NE3       29.91F
MARTINSVILLE   PTSUNNY   88  67  49 N5        29.97F
ROANOKE        FAIR      88  66  48 SW7       29.96F
BLACKSBURG     FAIR      81  66  60 CALM      30.04F
DUBLIN*        FAIR      84  66  55 CALM      30.03F
MARION*        PTSUNNY   82  69  64 SW7       30.06F
HILLSVILLE*    FAIR      80  66  62 W5        30.05S
RICHLANDS*     MOCLDY    76  71  84 SW5       30.05F
WISE*          PTSUNNY  N/A N/A N/A W7        30.06F
ABINGDON*      PTSUNNY   84  68  58 W3        30.02F
$$

MDZ021>025-VAZ099-100-292100-
SOUTHERN MARYLAND AND THE DELMARVA PENINSULA

CITY           SKY/WX    TMP DP  RH WIND       PRES   REMARKS
PATUXENT RIVER MOSUNNY   87  69  54 NE6       29.87S
BAY BRIDGE APT SUNNY     86  70  58 CALM      29.86F
LEONARDTOWN    MOSUNNY   82  68  61 MISG        N/A
DOVER          MOSUNNY   85  76  74 N12       29.84S
GEORGETOWN     MOSUNNY   86  69  56 N10       29.87R
EASTON         MOSUNNY   86  75  70 N7        29.90S HX  95
CAMBRIDGE      SUNNY     82  70  65 NW5       29.87R
SALISBURY      NOT AVBL
OCEAN CITY       N/A     80  73  79 MISG      29.86R
WALLOPS ISLAND CLOUDY    86  73  65 N6        29.87R
ACCOMACK*      FAIR      82  72  69 CALM      29.87R
$$

NCZ012>017-030>032-292100-
NORTH CENTRAL AND EASTERN NORTH CAROLINA

CITY           SKY/WX    TMP DP  RH WIND       PRES   REMARKS
ROANOKE RAPIDS FAIR      86  73  66 NW6       29.90S
RALEIGH        PTSUNNY   92  69  47 VRB6      29.92F HX  97
ELIZABETH CITY PTSUNNY   90  73  57 W9        29.86F HX  98
AHOSKIE*       MOSUNNY   85  74  68 N5        29.89S
EDENTON*       CLOUDY    90  72  54 NW8       29.88S HX  97
CURRITUCK*     CLOUDY    88  74  63 W3        29.88R HX  96
KILL DEVIL HLS CLOUDY    91  75  60 NE5       29.86S HX 102
MANTEO           N/A     89  76  65 N9        29.87S HX 101
CAPE HATTERAS  PTSUNNY   85  79  82 SW10G18   29.89S HX  98
TARBORO*       CLOUDY    92  75  57 N8        29.89S HX 102
GOLDSBORO      MOSUNNY   95  68  41 W12       29.88F HX  99
WASHINGTON     CLOUDY    89  74  62 NW3       29.88S HX  97
GREENVILLE     MOSUNNY   93  73  52 NW8       29.90S HX 102
NEW BERN       MOSUNNY   94  75  54 W6        29.89S HX 105
WILMINGTON     MOSUNNY   93  72  50 W14       29.89F HX 101
$$

VAZ048-292100-
ELSEWHERE

CITY           SKY/WX    TMP DP  RH WIND       PRES   REMARKS
HARRISBURG PA  MOSUNNY   90  70  51 CALM      29.85F HX  95
BALTIMORE      PTSUNNY   89  68  49 W6        29.85F
ANNAPOLIS      SUNNY     84  73  69 SE9       29.86S
ANDREWS AFB    FAIR      87  68  52 VRB2      29.87S
PHILADELPHIA   PTSUNNY   86  66  51 N8        29.85R
GREENSBORO     MOSUNNY   91  66  43 NW9       29.94F
ROCKY MOUNT    MOSUNNY   92  72  51 W7        29.89F HX  99
$$

VAZ100-292100-
MARINE

STATION/POSITION TIME  TEMP    WIND        PRES    WAVE   SWELL
                       AIR SEA DIR/SP/G            HT/PER HT/PER
                 (UTC) (F)     (DEG/KT/KT) (MB)    (FT/S) (FT/S)
BRANDYWINE LGT   1900   80     330/  7/  9   N/A
CAPE MAY NJ      1900   82 74  310/  7/ 10 1010.2R
LEWES DE         1900   79 74  320/  5/  6 1010.7R
OCEAN-CITY-INLET 1900   79 74   80/  6/  8 1011.2R
WACHAPREAGUE VA  1900   86 86  280/  4/ 11 1011.0R
THOMAS POINT MD  2000   83 84  150/  3/  4 1012.6F
GOOSES REEF MD   1900   82 86   30/  4/  8 1012.8R   1/ 2
COVE POINT MD    1900   81      20/  8/ 11 1012.2S
SOLOMONS ISLAND  1900   83 85   10/  7/  9   N/A
BISHOPS HEAD MD  1900   82     280/ 10/ 13 1011.7R
PINEY POINT MD   1900          320/  9/ 11   N/A
POTOMAC MD       1900   82 85   20/  8/ 10 1010.7R   1/ 3
CAMBRIDGE MD     1900   82 87  310/  8/ 11 1010.5R
LEWISETTA VA     1918   83 86   10/  4/  7 1011.4R
RAPPAHANNOCK LGT 1900          350/ 15/ 16 1012.1R
STINGRAY PT      1900   82 87  310/  8/ 10 1012.1R   1/ 2
YORK RVR RNG VA  1900   83     360/  8/ 10 1011.1R
YORKTOWN VA      1900   83 85  310/  9/ 11 1011.3R
JAMESTOWN VA     1900   84 89  310/  8/ 12   N/A     0
DOMINION TERM VA 1900   84     320/ 10/ 14 1011.7R
KIPTOPEKE VA     1900      81   20/  5/  7   N/A
CHES BAY BRIDGE  1900   79 81  360/ 12/ 14 1011.6R
CAPE HENRY VA    1900   81     350/ 11/ 12   N/A
WILLOUBY STN VA  1900   83     340/  5/  7   N/A
CAPE HENRY BUOY  1912      79                N/A     2/ 8
1ST LANDING BUOY 1900   81 81   10/ 14/ 17 1011.1R   1/ 4
64NM E OF VA BCH 1950   83 84  270/  6/  8 1011.2S   2/ 5   2/ 5
DUCK PIER NC     1900   80 68   50/ 10/ 11 1010.9R
44100 DUCK FRF   1905      81                N/A     2/13
44056 DUCK FRF   1911      76                N/A     1/ 8
OREGON INLET NC  1900   87 84   40/  6/  7 1011.2R
HATTERAS NC      1900   87 84  210/ 10/ 14 1011.7R
DIAMOND SHLS NC  1950   87 85  230/ 17/ 21 1011.8R   4/ 6   2/16
CAPE LOOKOUT NC  2000   87     220/ 11/ 17 1011.8F
$$




USA.gov is the U.S. government's official web portal to all federal, state and local government web resources and services.